Springfield, OH

11:55 AM EDT on May 25, 2017 (GMT -0400)
Springfield-Beckley Municipal

Weather History for KSGH - October, 2012

Change the Weather History Date:

Tuesday, October 9, 2012

  Actual Average (KFFO) Record (KFFO)
Temperature  
Mean Temperature 46 °F -  
Max Temperature 59 °F 65 °F 84 °F (2010)
Min Temperature 34 °F 43 °F 35 °F (2000)
Degree Days  
Heating Degree Days 18    
Moisture  
Dew Point 34 °F    
Average Humidity 69    
Maximum Humidity 93    
Minimum Humidity 35    
Precipitation  
Precipitation 0.00 in - - ()
Sea Level Pressure  
Sea Level Pressure 30.12 in    
Wind  
Wind Speed 7 mph (South)    
Max Wind Speed 14 mph    
Max Gust Speed 17 mph    
Visibility 8 miles    
Events      
Averages and records for this station are not official NWS values.
T = Trace of Precipitation, MM = Missing Value Source: NWS Daily Summary

Daily Weather History Graph

Daily Weather History Graph

Search for Another Location

Airport or City:

Trip Planner

Search our weather history database for the weather conditions in past years. The results will help you decide how hot, cold, wet, or windy it might be!

Date:

Astronomy

Oct. 09, 2012 Rise Set
Actual Time 7:40 AM EDT 7:04 PM EDT
Civil Twilight 7:12 AM EDT 7:31 PM EDT
Nautical Twilight 6:41 AM EDT 8:02 PM EDT
Astronomical Twilight 6:10 AM EDT 8:33 PM EDT
Moon 1:16 AM EDT (10/9) 3:30 PM EDT (10/9)
Length of Visible Light 12h 18m
Length of Day
11h 24m
Last Quarter, 37% of the Moon is Illuminated
Oct 9
Last Quarter
Oct 15
New
Oct 21
First Quarter
Oct 29
Full
Nov 6
Last Quarter

Hourly Weather History & Observations

Time (EDT) Temp. Windchill Dew Point Humidity Pressure Visibility Wind Dir Wind Speed Gust Speed Precip Events Conditions
12:56 AM 37.9 °F 33.5 °F 34.0 °F 86% 30.20 in 7.0 mi South 5.8 mph - N/A   Clear
1:56 AM 36.9 °F 32.2 °F 32.9 °F 86% 30.19 in 7.0 mi South 5.8 mph - N/A   Clear
2:56 AM 36.9 °F 32.2 °F 32.9 °F 86% 30.19 in 8.0 mi South 5.8 mph - N/A   Clear
3:56 AM 36.9 °F 33.1 °F 32.9 °F 86% 30.18 in 7.0 mi South 4.6 mph - N/A   Clear
4:56 AM 34.9 °F 32.0 °F 32.9 °F 92% 30.17 in 7.0 mi South 3.5 mph - N/A   Clear
5:56 AM 34.9 °F 30.8 °F 32.9 °F 92% 30.18 in 7.0 mi South 4.6 mph - N/A   Clear
6:56 AM 34.9 °F 30.8 °F 32.9 °F 92% 30.20 in 6.0 mi Variable 4.6 mph - N/A   Clear
7:56 AM 34.9 °F 30.8 °F 32.9 °F 92% 30.20 in 3.0 mi South 4.6 mph - N/A   Clear
8:28 AM 35.6 °F 30.7 °F 33.8 °F 93% 30.17 in 2.5 mi SSE 5.8 mph - N/A   Clear
8:40 AM 37.4 °F 32.8 °F 35.6 °F 93% 30.17 in 4.0 mi South 5.8 mph - N/A   Clear
8:56 AM 38.8 °F 33.8 °F 36.0 °F 89% 30.20 in 5.0 mi South 6.9 mph - N/A   Clear
9:56 AM 45.0 °F 40.1 °F 37.9 °F 76% 30.19 in 7.0 mi SSW 9.2 mph - N/A   Clear
10:56 AM 50.0 °F - 39.9 °F 68% 30.19 in 7.0 mi SSW 9.2 mph - N/A   Clear
11:56 AM 52.9 °F - 37.9 °F 57% 30.17 in 6.0 mi SSW 11.5 mph - N/A   Haze
12:56 PM 54.9 °F - 36.9 °F 51% 30.14 in 7.0 mi SW 9.2 mph - N/A   Partly Cloudy
1:56 PM 55.9 °F - 36.0 °F 47% 30.11 in 6.0 mi SW 13.8 mph 17.3 mph N/A   Haze
2:56 PM 57.9 °F - 34.0 °F 41% 30.07 in 10.0 mi SW 10.4 mph - N/A   Clear
3:56 PM 59.0 °F - 32.0 °F 36% 30.05 in 10.0 mi SW 9.2 mph - N/A   Clear
4:56 PM 59.9 °F - 32.0 °F 35% 30.03 in 10.0 mi SSW 10.4 mph 16.1 mph N/A   Clear
5:56 PM 57.9 °F - 32.9 °F 39% 30.02 in 10.0 mi SW 12.7 mph - N/A   Clear
6:56 PM 54.0 °F - 34.0 °F 47% 30.02 in 10.0 mi South 5.8 mph - N/A   Clear
7:56 PM 50.0 °F - 34.9 °F 56% 30.02 in 10.0 mi South 8.1 mph - N/A   Clear
8:56 PM 50.0 °F - 34.9 °F 56% 30.02 in 10.0 mi South 8.1 mph - N/A   Clear
9:56 PM 47.8 °F - 34.9 °F 61% 30.01 in 10.0 mi South 6.9 mph - N/A   Clear
10:56 PM 43.9 °F 40.5 °F 34.9 °F 71% 30.00 in 10.0 mi SSE 5.8 mph - N/A   Clear
11:56 PM 41.9 °F 38.2 °F 34.0 °F 73% 29.99 in 10.0 mi SSE 5.8 mph - N/A   Clear